BEIDOU-3 M7 (43245 NORAD) Tracking and Keplerian Element Data

This shows tracking and keplerian element data for the satellite.

Feedback or suggestion? Click here.




ElementValue
Catalog43245
NameBEIDOU-3 M7
Epoch Orbit51
Epoch Day116.57894828
Epoch Year2018
RAAN42.3029
Inclination55.0283
Eccentricity0.0002019
Argument of Perigee311.7001
Mean Anonmoly222.4562
Mean Motion1.86232552
Decay Rate-1.02E-06
L11 43245U 18029A 18116.57894828 -.00000102 00000-0 10000-3 0 9994
L22 43245 55.0283 42.3029 0002019 311.7001 222.4562 1.86232552 511

Live tracking and technical data element details for BEIDOU-3 M7 (NORAD 43245). BEIDOU-3 M7 can be tracked NOW for your location showing map with azimuth and elevation plus other details from your city location.

Track the satellite on the map from your city or location and see movement details for azimuth, elevation, latitude, longitude, range, height, and movement on the map or in text.







IsCatalogInMostPopularTable: catalog: 43245, numindb: 56
Update: records affected: 1



GetName: 43245 BEIDOU-3 M7

Hit Count: updated at: Tue, 20 Nov 2018 12:05:52 GMT